TimeHST,TemperatureF,Dew PointF,Humidity,Sea Level PressureIn,VisibilityMPH,Wind Direction,Wind SpeedMPH,Gust SpeedMPH,PrecipitationIn,Events,Conditions,WindDirDegrees,DateUTC
12:56 AM,52.7,51.3,95,30.38,4.0,WNW,2.3,-,N/A,,Scattered Clouds,300,2013-10-27 10:56:00
1:01 AM,53.6,51.8,94,30.38,3.0,WNW,1.2,-,N/A,,Mostly Cloudy,300,2013-10-27 11:01:00
1:21 AM,53.6,51.8,94,30.36,4.0,NNW,3.5,-,N/A,,Mostly Cloudy,340,2013-10-27 11:21:00
1:26 AM,53.6,51.8,94,30.36,4.0,WNW,3.5,-,N/A,,Mostly Cloudy,290,2013-10-27 11:26:00
1:31 AM,53.6,51.8,94,30.36,5.0,West,2.3,-,N/A,,Scattered Clouds,270,2013-10-27 11:31:00
1:56 AM,50.9,49.3,94,30.36,4.0,South,4.6,-,N/A,,Partly Cloudy,170,2013-10-27 11:56:00
2:51 AM,53.6,51.8,94,30.34,6.0,ESE,9.2,-,N/A,,Mostly Cloudy,120,2013-10-27 12:51:00
2:56 AM,53.8,51.6,92,30.33,7.0,East,8.1,-,N/A,,Scattered Clouds,100,2013-10-27 12:56:00
3:56 AM,51.8,50.4,95,30.34,8.0,SSW,4.6,-,N/A,,Clear,200,2013-10-27 13:56:00
4:56 AM,50.7,46.6,86,30.34,12.0,ESE,3.5,-,N/A,,Clear,120,2013-10-27 14:56:00
5:56 AM,49.6,45.7,86,30.35,11.0,ESE,5.8,-,N/A,,Clear,120,2013-10-27 15:56:00
6:56 AM,52.3,46.0,79,30.37,12.0,ESE,3.5,-,N/A,,Clear,120,2013-10-27 16:56:00
7:56 AM,60.4,49.6,68,30.38,12.0,SSW,1.2,-,N/A,,Clear,210,2013-10-27 17:56:00
8:56 AM,64.4,52.2,64,30.38,12.0,West,2.3,-,N/A,,Clear,280,2013-10-27 18:56:00
9:56 AM,63.9,52.5,67,30.40,10.0,West,5.8,16.1,N/A,,Scattered Clouds,270,2013-10-27 19:56:00
10:56 AM,69.1,53.8,58,30.38,10.0,WSW,5.8,13.8,N/A,,Partly Cloudy,240,2013-10-27 20:56:00
11:48 AM,69.8,55.4,60,30.36,9.0,WSW,9.2,-,N/A,Rain,Light Rain Showers,250,2013-10-27 21:48:00
11:56 AM,67.5,58.8,74,30.36,8.0,West,10.4,-,0.00,Rain,Light Rain Showers,270,2013-10-27 21:56:00
12:15 PM,64.4,59.0,83,30.36,5.0,North,6.9,-,N/A,Rain-Thunderstorm,Thunderstorms and Rain,10,2013-10-27 22:15:00
12:30 PM,60.8,53.6,77,30.36,7.0,East,5.8,13.8,N/A,Rain-Thunderstorm,Heavy Rain Showers,80,2013-10-27 22:30:00
12:31 PM,60.8,51.8,72,30.36,7.0,ENE,6.9,13.8,N/A,Rain-Thunderstorm,Thunderstorms and Rain,60,2013-10-27 22:31:00
12:46 PM,60.8,53.6,77,30.35,5.0,ENE,6.9,-,N/A,Rain,Light Rain Showers,60,2013-10-27 22:46:00
12:56 PM,61.2,52.9,74,30.35,6.0,ESE,5.8,-,0.13,Rain,Rain Showers,110,2013-10-27 22:56:00
1:16 PM,64.4,51.8,64,30.33,12.0,SSE,4.6,-,N/A,,Mostly Cloudy,150,2013-10-27 23:16:00
1:56 PM,63.0,59.9,90,30.31,5.0,West,9.2,-,0.00,,Partly Cloudy,260,2013-10-27 23:56:00
2:49 PM,62.6,59.0,88,30.30,5.0,WSW,12.7,19.6,N/A,Rain-Thunderstorm,Light Rain Showers,250,2013-10-28 00:49:00
2:56 PM,61.7,58.3,89,30.31,4.0,West,11.5,19.6,N/A,Rain-Thunderstorm,Light Rain Showers,260,2013-10-28 00:56:00
3:36 PM,60.8,59.0,94,30.31,2.8,WSW,10.4,-,N/A,Rain-Thunderstorm,Light Rain Showers,250,2013-10-28 01:36:00
3:41 PM,60.8,59.0,94,30.31,2.8,WSW,8.1,-,N/A,,Mostly Cloudy,250,2013-10-28 01:41:00
3:46 PM,60.8,59.0,94,30.31,3.0,WSW,5.8,15.0,N/A,,Mostly Cloudy,250,2013-10-28 01:46:00
3:51 PM,60.8,59.0,94,30.31,3.0,WSW,6.9,-,N/A,,Mostly Cloudy,250,2013-10-28 01:51:00
3:56 PM,61.2,58.5,91,30.31,4.0,WSW,5.8,-,N/A,,Mostly Cloudy,250,2013-10-28 01:56:00
3:59 PM,62.6,59.0,88,30.31,4.0,WSW,4.6,-,N/A,Thunderstorm,Thunderstorm,250,2013-10-28 01:59:00
4:04 PM,62.6,57.2,82,30.32,5.0,WSW,3.5,-,N/A,Thunderstorm,Thunderstorm,250,2013-10-28 02:04:00
4:14 PM,62.6,57.2,82,30.32,6.0,WSW,4.6,-,N/A,Thunderstorm,Thunderstorm,240,2013-10-28 02:14:00
4:18 PM,62.6,57.2,82,30.32,6.0,WSW,4.6,-,N/A,,Mostly Cloudy,240,2013-10-28 02:18:00
4:29 PM,62.6,57.2,82,30.32,6.0,WSW,5.8,12.7,N/A,Rain,Light Rain Showers,250,2013-10-28 02:29:00
4:43 PM,57.2,55.4,94,30.32,1.1,SSW,8.1,13.8,N/A,Rain-Thunderstorm,Heavy Thunderstorms and Rain,210,2013-10-28 02:43:00
4:53 PM,59.0,57.2,94,30.33,3.0,SW,5.8,-,N/A,Rain-Thunderstorm,Heavy Thunderstorms and Rain,230,2013-10-28 02:53:00
4:56 PM,58.5,57.6,97,30.33,3.0,SW,3.5,-,0.15,Rain-Thunderstorm,Heavy Thunderstorms and Rain,220,2013-10-28 02:56:00
5:01 PM,57.2,57.2,100,30.33,1.1,SSW,6.9,-,N/A,Rain-Thunderstorm,Heavy Thunderstorms and Rain,210,2013-10-28 03:01:00
5:06 PM,57.2,57.2,100,30.33,1.0,SW,4.6,-,N/A,Rain-Thunderstorm,Heavy Thunderstorms and Rain,230,2013-10-28 03:06:00
5:12 PM,57.2,55.4,94,30.33,2.5,SW,2.3,-,N/A,Rain-Thunderstorm,Heavy Thunderstorms and Rain,220,2013-10-28 03:12:00
5:13 PM,57.2,55.4,94,30.33,5.0,SW,3.5,-,N/A,Rain,Heavy Rain Showers,220,2013-10-28 03:13:00
5:23 PM,57.2,57.2,100,30.34,8.0,SW,3.5,-,N/A,Rain,Light Rain Showers,230,2013-10-28 03:23:00
5:24 PM,57.2,57.2,100,30.34,8.0,WSW,2.3,-,N/A,,Mostly Cloudy,240,2013-10-28 03:24:00
5:56 PM,57.4,56.7,97,30.35,8.0,SW,1.2,-,0.10,,Overcast,230,2013-10-28 03:56:00
6:51 PM,57.2,55.4,94,30.36,8.0,Calm,Calm,-,N/A,,Scattered Clouds,0,2013-10-28 04:51:00
6:56 PM,57.4,55.9,95,30.36,8.0,Calm,Calm,-,N/A,,Scattered Clouds,0,2013-10-28 04:56:00
7:26 PM,57.2,55.4,94,30.38,8.0,Calm,Calm,-,N/A,,Mostly Cloudy,0,2013-10-28 05:26:00
7:56 PM,57.7,55.0,91,30.39,8.0,SE,2.3,-,N/A,,Mostly Cloudy,140,2013-10-28 05:56:00
8:16 PM,57.2,53.6,88,30.39,9.0,ESE,4.6,-,N/A,,Scattered Clouds,120,2013-10-28 06:16:00
8:56 PM,55.4,52.0,88,30.40,10.0,ESE,3.5,-,N/A,,Clear,120,2013-10-28 06:56:00
9:41 PM,55.4,51.8,88,30.40,9.0,ESE,5.8,-,N/A,,Mostly Cloudy,120,2013-10-28 07:41:00
9:46 PM,55.4,51.8,88,30.40,9.0,ESE,4.6,-,N/A,,Scattered Clouds,120,2013-10-28 07:46:00
9:56 PM,54.1,51.3,90,30.40,9.0,ESE,4.6,-,N/A,,Partly Cloudy,120,2013-10-28 07:56:00
10:56 PM,52.9,49.5,88,30.39,9.0,SE,4.6,-,N/A,,Clear,140,2013-10-28 08:56:00
11:56 PM,51.6,47.8,87,30.38,12.0,ESE,4.6,-,N/A,,Clear,120,2013-10-28 09:56:00